Location: Brompton
(51.4000°N, 0.5333°E)
Time: 18:20:39
(UTC+00:00)

Cosmos 1536 - Pass Details

Date: 29 September 2021
Orbit: 539 x 557 km, 82.5° (Epoch: 28 October)

Event Time Altitude Azimuth Distance (km) Brightness Sun altitude
Rises 02:03:24 0° 5° (N) 2,714 7.0 -33.5°
Reaches altitude 10° 02:06:48 10° 35° (NE) 1,814 6.3 -33.1°
Maximum altitude 02:08:30 12° 61° (ENE) 1,663 6.0 -32.9°
Drops below altitude 10° 02:10:12 10° 86° (E) 1,808 5.9 -32.7°
Enters shadow 02:12:06 - 107° (ESE) 2,246 6.2 -32.5°
